Weather History for Rexburg, ID

Change the Weather History Date:

Thursday, November 8, 2012

  Actual Average Record
Temperature  
Mean Temperature 49 °F 35 °F  
Max Temperature 58 °F 45 °F 63 °F (1999)
Min Temperature 40 °F 24 °F 16 °F (2003)
Degree Days  
Heating Degree Days 16 30  
Month to date heating degree days 166 228  
Since 1 July heating degree days 980 1215  
Cooling Degree Days 0 0  
Month to date cooling degree days 0 0  
Year to date cooling degree days 419 208  
Moisture  
Dew Point 33 °F    
Average Humidity 58    
Maximum Humidity 79    
Minimum Humidity 36    
Precipitation  
Precipitation T in 0.04 in 0.92 in (2010)
Month to date precipitation T 0.31  
Year to date precipitation 8.04 11.30  
Sea Level Pressure  
Sea Level Pressure 29.65 in    
Wind  
Wind Speed 5 mph (South)    
Max Wind Speed 22 mph    
Max Gust Speed 29 mph    
Visibility 10 miles    
Events Rain    
T = Trace of Precipitation, MM = Missing Value Source: NWS Daily Summary

Daily Weather History Graph

Daily Weather History Graph

Search for Another Location

Airport:

Trip Planner

Search our weather history database for the weather conditions in past years. The results will help you decide how hot, cold, wet, or windy it might be!

Date:

Astronomy

Nov. 08, 2012 Rise Set
Actual Time 7:13 AM MST 5:08 PM MST
Civil Twilight 6:42 AM MST 5:38 PM MST
Nautical Twilight 6:08 AM MST 6:13 PM MST
Astronomical Twilight 5:34 AM MST 6:46 PM MST
Moon 1:01 AM MST (11/8) 2:01 PM MST (11/8)
Length of Visible Light 10h 55m
Length of Day
9h 54m
Waning Crescent, 32% of the Moon is Illuminated
Nov 8
Waning Crescent
Nov 13
New
Nov 20
First Quarter
Nov 28
Full
Dec 6
Last Quarter

Hourly Weather History & Observations

Time (MST) Temp. Windchill Dew Point Humidity Pressure Visibility Wind Dir Wind Speed Gust Speed Precip Events Conditions
12:53 AM 48.9 °F - 30.9 °F 50% 29.79 in 10.0 mi South 4.6 mph - N/A   Overcast
1:53 AM 44.1 °F 41.5 °F 30.9 °F 60% 29.79 in 10.0 mi NE 4.6 mph - N/A   Overcast
2:53 AM 43.0 °F 41.3 °F 30.9 °F 62% 29.78 in 10.0 mi NE 3.5 mph - N/A   Overcast
3:53 AM 43.0 °F 41.3 °F 32.0 °F 65% 29.75 in 10.0 mi East 3.5 mph - N/A   Scattered Clouds
4:53 AM 43.0 °F 40.3 °F 32.0 °F 65% 29.73 in 10.0 mi ENE 4.6 mph - N/A   Overcast
5:53 AM 42.1 °F 40.2 °F 33.1 °F 70% 29.71 in 10.0 mi East 3.5 mph - N/A   Overcast
6:53 AM 39.9 °F - 33.1 °F 77% 29.72 in 10.0 mi Calm Calm - N/A   Overcast
7:53 AM 41.0 °F - 34.0 °F 76% 29.72 in 10.0 mi Calm Calm - N/A   Overcast
8:53 AM 43.0 °F - 34.0 °F 71% 29.70 in 10.0 mi Calm Calm - N/A   Overcast
9:53 AM 45.0 °F 42.6 °F 34.0 °F 65% 29.67 in 10.0 mi ESE 4.6 mph - N/A   Overcast
10:53 AM 51.1 °F - 34.0 °F 52% 29.63 in 10.0 mi Calm Calm - N/A   Mostly Cloudy
11:53 AM 51.1 °F - 32.0 °F 48% 29.61 in 10.0 mi ENE 4.6 mph - N/A   Overcast
12:53 PM 54.0 °F - 30.9 °F 41% 29.59 in 10.0 mi WSW 9.2 mph - N/A   Overcast
1:53 PM 57.0 °F - 30.0 °F 36% 29.58 in 10.0 mi South 12.7 mph - N/A   Partly Cloudy
2:53 PM 53.1 °F - 30.9 °F 43% 29.61 in 10.0 mi West 11.5 mph 21.9 mph N/A   Overcast
3:53 PM 54.0 °F - 30.0 °F 40% 29.58 in 10.0 mi SSW 4.6 mph - N/A   Overcast
4:53 PM 52.0 °F - 30.9 °F 45% 29.59 in 10.0 mi SSE 3.5 mph - N/A   Mostly Cloudy
5:53 PM 46.9 °F - 30.9 °F 54% 29.59 in 10.0 mi West 4.6 mph - N/A   Clear
6:53 PM 45.0 °F 43.5 °F 32.0 °F 60% 29.59 in 10.0 mi NW 3.5 mph - N/A   Partly Cloudy
7:53 PM 43.0 °F 40.3 °F 32.0 °F 65% 29.57 in 10.0 mi West 4.6 mph - N/A   Mostly Cloudy
8:53 PM 42.1 °F 40.2 °F 35.1 °F 76% 29.57 in 10.0 mi WNW 3.5 mph - 0.00 in Rain Light Rain
9:53 PM 43.0 °F 40.3 °F 37.0 °F 80% 29.58 in 10.0 mi South 4.6 mph - 0.00 in Rain Light Rain
10:53 PM 42.1 °F - 37.0 °F 82% 29.55 in 10.0 mi Calm Calm - 0.00 in   Overcast
11:05 PM 42.8 °F 41.1 °F 37.4 °F 81% 29.58 in 10.0 mi South 3.5 mph - N/A   Overcast
11:53 PM 39.9 °F 32.5 °F 36.0 °F 86% 29.57 in 10.0 mi SW 12.7 mph - N/A   Overcast